Location: Carrington
(40.8686°N, 81.5060°W)
Time: 10:05:30
(UTC+00:00)

BlueWalker 3 - Visible Passes

Search period start: 12 October 2024 00:00
Search period end: 22 October 2024 00:00
Orbit: 472 x 485 km, 53.2° (Epoch: 11 October)

Date Brightness Start Highest point End Pass type
(mag) Time Alt. Az. Time Alt. Az. Time Alt. Az.
12 Oct 4.1 09:43:02 15° N 09:43:02 15° N 09:44:56 10° NNE visible
13 Oct 4.6 09:15:43 13° NNE 09:15:43 13° NNE 09:16:29 10° NNE visible
13 Oct 4.3 10:51:42 10° NNW 10:53:21 12° N 10:55:01 10° NNE visible
14 Oct 4.3 10:23:07 10° NNW 10:24:43 12° N 10:26:19 10° NNE visible
15 Oct 4.3 09:55:04 11° NNW 09:56:01 12° N 09:57:34 10° NNE visible
16 Oct 4.5 09:27:35 12° N 09:27:35 12° N 09:28:47 10° NNE visible
16 Oct 3.9 11:03:27 10° NNW 11:06:21 21° NNE 11:09:14 10° ENE visible
17 Oct 4.0 10:34:46 10° NNW 10:37:33 20° NNE 10:40:20 10° ENE visible
18 Oct 4.1 10:06:43 13° NNW 10:08:41 19° NNE 10:11:22 10° ENE visible
19 Oct 4.1 09:39:11 17° N 09:39:46 17° NNE 09:42:20 10° ENE visible
20 Oct 4.5 09:11:39 15° NE 09:11:39 15° NE 09:13:14 10° ENE visible
20 Oct 2.2 10:45:49 11° NW 10:49:20 61° NE 10:52:58 10° ESE visible
21 Oct 2.4 10:18:19 23° NW 10:20:20 53° NE 10:23:57 10° ESE visible
